Location: Willingham
(52.3167°N, 0.0667°E)
Time: 05:38:56
(UTC+00:00)

Cosmos 2322 Rocket - Pass Details

Date: 19 May 2025
Orbit: 832 x 850 km, 71.0° (Epoch: 13 June)

Event Time Altitude Azimuth Distance (km) Brightness Sun altitude
Rises 21:03:49 0° 326° (NNW) 3,422 7.7 -8.6°
Reaches altitude 10° 21:07:04 10° 345° (NNW) 2,481 5.8 -8.9°
Maximum altitude 21:11:01 19° 29° (NNE) 1,926 4.4 -9.3°
Drops below altitude 10° 21:14:56 10° 73° (ENE) 2,467 4.4 -9.7°
Sets 21:18:09 0° 91° (E) 3,395 5.0 -10.0°
